Regional Weather Roundup
Issued by NWS

Home | Current Version | Previous Version | Text Only | Print | Product List | Glossary Off
Versions: 1 2 3 4 5 6 7 8 9 10 11 12 13 14 15 16 17 18 19 20 21 22 23 24 25 26 27 28 29 30 31 32 33 34 35 36 37 38 39 40 41 42 43 44 45 46 47 48 49 50

000
ASUS43 KLMK 261602
RWRKY
KENTUCKY REGIONAL WEATHER ROUNDUP
NATIONAL WEATHER SERVICE LOUISVILLE KY
1200 PM EDT MON JUN 26 2017

NOTE "FAIR" INDICATES FEW OR NO CLOUDS BELOW 12,000 FEET
WITH NO SIGNIFICANT WEATHER AND/OR OBSTRUCTIONS TO VISIBILITY.

KYZ001>023-026-027-061>063-070>075-261700-
WESTERN AND SOUTH CENTRAL KENTUCKY

CITY           SKY/WX    TMP DP  RH WIND       PRES   REMARKS
PADUCAH        CLOUDY    74  46  36 N7        30.21F
HENDERSON      MOSUNNY   74  49  41 VRB3      30.21F
OWENSBORO      PTSUNNY   74  48  39 NW9       30.21S
HOPKINSVILLE   SUNNY     75  49  40 CALM      30.21F
BOWLING GREEN  SUNNY     76  49  38 N5        30.20F
GLASGOW        NOT AVBL
$$

KYZ024-025-028>034-038-045-046-053-261700-
NORTH CENTRAL KENTUCKY

CITY           SKY/WX    TMP DP  RH WIND       PRES   REMARKS
LOUISVILLE/SDF MOSUNNY   76  48  37 NW10      30.19F
LOUISVILLE/LOU SUNNY     74  46  36 NW8       30.19F
FORT KNOX      MOSUNNY   72  50  45 W5        30.19S
$$

KYZ035>037-039>044-047>052-055>060-089>105-261700-
NORTHEAST KENTUCKY

CITY           SKY/WX    TMP DP  RH WIND       PRES   REMARKS
LEXINGTON      MOSUNNY   72  47  40 VRB7      30.19F
COVINGTON      PTSUNNY   71  48  43 NW15G22   30.17F
FRANKFORT      MOSUNNY   72  46  39 NW8       30.18F
$$

KYZ054-064>069-076>088-106>120-261700-
SOUTHEAST KENTUCKY

CITY           SKY/WX    TMP DP  RH WIND       PRES   REMARKS
JACKSON        SUNNY     73  56  54 CALM      30.19S
LONDON         MOSUNNY   73  50  44 VRB5      30.20S
SOMERSET       MOSUNNY   72  50  46 N3        30.21F
MIDDLESBORO    MOSUNNY   76  54  47 NW3       30.19F
MONTICELLO     MOSUNNY   74  54  49 W8        30.22S
$$





USA.gov is the U.S. government's official web portal to all federal, state and local government web resources and services.